Location: Newark
(46.7000°N, 60.6000°W)
Time: 08:54:41
(UTC+00:00)

Vanguard 3 - Pass Details

Date: 07 November 2020
Orbit: 508 x 3262 km, 33.3° (Epoch: 29 November)

Event Time Altitude Azimuth Distance (km) Brightness Sun altitude
Rises 14:08:05 0° 275° (W) 7,034 11.6 23.0°
Reaches altitude 10° 14:15:20 10° 259° (W) 6,181 11.6 23.6°
Maximum altitude 14:25:41 17° 227° (SW) 5,512 11.8 24.2°
Drops below altitude 10° 14:35:29 10° 194° (SSW) 5,728 12.5 24.8°
Sets 14:41:53 0° 177° (S) 6,319 12.9 25.1°
